TimeEDT,TemperatureF,Dew PointF,Humidity,Sea Level PressureIn,VisibilityMPH,Wind Direction,Wind SpeedMPH,Gust SpeedMPH,PrecipitationIn,Events,Conditions,WindDirDegrees,DateUTC
12:56 AM,72.0,70.0,93,29.86,8.0,NW,3.5,-,N/A,,Clear,310,2013-08-10 04:56:00
1:56 AM,72.0,69.1,91,29.86,10.0,NW,8.1,-,N/A,,Clear,310,2013-08-10 05:56:00
2:56 AM,71.1,66.0,84,29.88,10.0,NW,12.7,-,0.01,,Clear,310,2013-08-10 06:56:00
3:56 AM,69.1,64.0,84,29.89,10.0,NW,10.4,-,N/A,,Clear,320,2013-08-10 07:56:00
4:56 AM,68.0,62.1,81,29.91,10.0,WNW,8.1,-,N/A,,Clear,300,2013-08-10 08:56:00
5:56 AM,64.0,62.1,93,29.93,10.0,Calm,Calm,-,N/A,,Scattered Clouds,0,2013-08-10 09:56:00
6:56 AM,64.9,63.0,93,29.96,9.0,Calm,Calm,-,N/A,,Clear,0,2013-08-10 10:56:00
7:56 AM,70.0,62.1,76,29.96,10.0,WNW,5.8,-,N/A,,Clear,290,2013-08-10 11:56:00
8:56 AM,72.0,63.0,73,29.97,10.0,WNW,11.5,-,N/A,,Clear,300,2013-08-10 12:56:00
9:56 AM,73.0,62.1,68,29.97,10.0,NW,8.1,-,N/A,,Clear,310,2013-08-10 13:56:00
10:56 AM,77.0,60.1,56,29.97,10.0,WNW,6.9,-,N/A,,Clear,290,2013-08-10 14:56:00
11:56 AM,75.9,60.1,58,29.97,10.0,WNW,9.2,-,N/A,,Clear,290,2013-08-10 15:56:00
12:56 PM,77.0,63.0,62,29.97,10.0,WNW,8.1,-,N/A,,Partly Cloudy,300,2013-08-10 16:56:00
1:56 PM,78.1,60.1,54,29.96,10.0,WNW,12.7,-,N/A,,Partly Cloudy,300,2013-08-10 17:56:00
2:56 PM,79.0,60.1,52,29.96,10.0,NW,11.5,20.7,N/A,,Scattered Clouds,310,2013-08-10 18:56:00
3:56 PM,79.0,60.1,52,29.96,10.0,NW,11.5,-,N/A,,Mostly Cloudy,310,2013-08-10 19:56:00
4:56 PM,80.1,61.0,52,29.96,10.0,WNW,12.7,-,N/A,,Mostly Cloudy,300,2013-08-10 20:56:00
5:56 PM,79.0,57.0,47,29.96,10.0,WNW,9.2,-,N/A,,Clear,300,2013-08-10 21:56:00
6:56 PM,78.1,55.9,46,29.97,10.0,WNW,8.1,-,N/A,,Partly Cloudy,300,2013-08-10 22:56:00
7:56 PM,73.0,57.0,57,29.99,10.0,NW,5.8,-,N/A,,Clear,320,2013-08-10 23:56:00
8:56 PM,70.0,57.0,63,30.01,10.0,NNW,4.6,-,N/A,,Clear,330,2013-08-11 00:56:00
9:56 PM,66.9,55.9,68,30.04,10.0,NNW,5.8,-,N/A,,Clear,330,2013-08-11 01:56:00
10:56 PM,68.0,54.0,61,30.04,10.0,NNW,3.5,-,N/A,,Clear,340,2013-08-11 02:56:00
11:56 PM,64.0,55.0,73,30.05,10.0,NNW,4.6,-,N/A,,Clear,330,2013-08-11 03:56:00